www.pogodaiklimat.ru

Погода и климат >> Архив погоды >> Китай >> Хунань >> Чанша


ПОГОДА в Чанше

  • Прогноз погоды в Чанше
  • Монитор погоды в Чанше

АРХИВ ПОГОДЫ в Чанше

Время (UTC), дата Ветер
(напр.,м/с)
 
Видим.   Явления Облачность Т
(С)
Тd
(С)
f
(%)
Тe
(С)
Тes
(С)
Комфортность P
(гПа)
Po
(гПа)
Тmin
(С)
Tmax
(С)
R
(мм)
R24
(мм)
S
(см)
00 13.09 ЮВ 1 15 км ясно +29.4 +21.6 63 +37 +41 очень
душно
1009.2 995.7
03 13.09 ЮВ 2 29 км ясно +35.5 +19.4 39 +41 +56 опасность
перегрева
1009.1 1001.5
06 13.09 В 2 30 км 4/4 1500 м
[]
+37.9 +17.8 31 +41 +50 опасность
перегрева
1006.7 993.3 +24.8
09 13.09 В 3 30 км ясно +37.4 +16.9 30 +40 +42 очень
душно
1005.8 998.3
12 13.09 С 5 30 км ясно +33.3 +20.8 48 +40 +40 очень
душно
1007.7 994.2
15 13.09 С 5 28 км н/о +31.7 +23.3 61 +42 +42 опасность
перегрева
1008.7 1001.0
18 13.09 СЗ 5 15 км н/о +27.5 +23.3 78 +37 +37 очень
душно
1009.1 995.7 +39.1
21 13.09 СЗ 6 23 км н/о +26.1 +21.5 76 +33 +33 очень
душно
1009.8 1002.0
00 14.09 СЗ 5 30 км 8/8 1000 м
[]
+25.3 +20.3 74 +31 +32 очень
душно
1012.0 998.4
03 14.09 С 6 30 км 3/3 1000 м
[]
+27.1 +19.7 64 +33 +37 очень
душно
1012.5 1004.7
06 14.09 С 8 30 км 4/4 1000 м
[]
+27.7 +19.8 62 +34 +35 очень
душно
1011.1 997.4 +25.0
09 14.09 С 3 27 км 5/5 600 м
[]
+26.4 +19.8 67 +32 +33 очень
душно
1010.3 1002.5
12 14.09 СЗ 4 27 км 5/5
[]
+23.3 +19.0 77 +30 +30 очень
душно
1012.0 998.2
15 14.09 С 5 30 км н/о +22.5 +19.3 82 +28 +28 душно 1012.8 1004.9
18 14.09 С 5 30 км н/о +22.3 +18.3 78 +27 +27 душно 1011.8 998.0 +28.3
21 14.09 СЗ 4 30 км н/о +21.7 +17.3 76 +26 +26 душно 1011.7 1003.8
00 15.09 С 4 30 км ясно +22.4 +17.5 74 +27 +29 душно 1012.5 998.6
03 15.09 С 5 30 км ясно +27.3 +18.3 58 +32 +40 очень
душно
1012.5 1004.7
06 15.09 С 3 30 км ясно +29.7 +19.7 55 +36 +48 очень
душно
1010.2 996.5 +21.2
09 15.09 С 6 30 км ясно +28.5 +20.5 62 +35 +36 очень
душно
1009.5 1001.8
12 15.09 С 2 23 км ясно +26.0 +20.6 72 +32 +32 очень
душно
1010.8 997.0
15 15.09 С 6 21 км н/о +25.1 +21.0 78 +32 +32 очень
душно
1011.5 1003.6
18 15.09 СЗ 3 22 км н/о +22.5 +18.5 78 +28 +28 душно 1011.7 997.9 +30.2
21 15.09 З 3 30 км н/о +21.6 +17.0 75 +26 +26 душно 1012.2 1004.3
00 16.09 СЗ 3 30 км 10/10 1000 м
[]
+21.6 +17.0 75 +26 +26 душно 1013.9 1000.0
03 16.09 С 5 30 км 9/9 600 м
[]
+22.9 +17.4 71 +28 +29 душно 1014.1 1006.2
06 16.09 СЗ 5 22 км {дождь} 9/9 600 м
[]
+24.6 +18.8 70 +29 +30 душно 1012.0 998.1 +21.1 1
09 16.09 С 7 23 км 9/9 1000 м
[]
+23.8 +18.2 71 +28 +28 душно 1011.0 1003.1
12 16.09 С 3 25 км 10/10 600 м
[]
+22.2 +18.4 79 +27 +27 душно 1012.0 998.0
15 16.09 С 4 22 км н/о +22.2 +18.0 77 +27 +27 душно 1013.1 1005.2
18 16.09 СЗ 5 24 км н/о +22.0 +18.4 80 +27 +27 душно 1012.8 998.9 +25.3
21 16.09 С 4 27 км н/о +20.8 +18.2 85 +25 +25 комфорт 1013.7 1005.7
00 17.09 С 3 17 км слаб. дождь 10/10 100 м
[]
+20.6 +18.5 88 +25 +25 комфорт 1015.7 1001.7 0.0
03 17.09 СЗ 4 16 км 8/8 600 м
[]
+24.6 +19.0 71 +30 +32 очень
душно
1015.8 1007.9
06 17.09 С 6 20 км 3/3
[]
+26.7 +19.6 65 +32 +36 очень
душно
1013.6 999.7 +20.6
09 17.09 С 6 16 км 9/9
[]
+24.5 +19.6 74 +30 +30 очень
душно
1013.3 1005.4
12 17.09 С 8 18 км 5/5 300 м
[]
+23.1 +19.3 79 +29 +29 очень
душно
1015.3 1001.3
15 17.09 С 6 21 км н/о +22.1 +18.3 79 +27 +27 душно 1017.1 1009.1
18 17.09 С 5 19 км н/о +20.7 +16.9 79 +24 +24 комфорт 1017.2 1003.3 +26.8
21 17.09 С 5 15 км н/о +19.6 +17.2 86 +22 +22 комфорт 1018.0 1010.0
00 18.09 С 3 14 км 10/10 300 м
[]
+19.3 +17.3 88 +21 +21 комфорт 1020.1 1006.0 0.0
03 18.09 С 7 12 км 10/10 300 м
[]
+19.5 +17.5 88 +21 +21 комфорт 1020.6 1012.5
06 18.09 С 4 10 км 10/10 300 м
[]
+19.7 +18.4 92 +22 +22 комфорт 1019.3 1005.2 +19.1
09 18.09 С 6 9000 м 10/10 200 м
[]
+19.2 +18.2 94 +21 +21 комфорт 1019.0 1010.9
12 18.09 СЗ 4 4700 м слаб. дождь 10/10 200 м
[]
+18.8 +18.1 96 +20 +20 1020.1 1005.9 0.0
15 18.09 С 6 3500 м дымка н/о +18.8 +18.3 97 +20 +20 1020.4 1012.3
18 18.09 С 2 н/о дымка ?/? +18.9 +18.1 95 +21 +21 комфорт 1019.7 1005.5 +20.7
21 18.09 С 6 11 км н/о +18.8 +17.1 90 +20 +20 1019.4 1011.3
00 19.09 С 5 15 км 10/10 300 м
[]
+19.2 +17.0 87 +21 +21 комфорт 1020.4 1006.2
03 19.09 З 1 15 км 8/8 1000 м
[]
+22.8 +16.6 68 +27 +31 душно 1019.7 1011.7
06 19.09 С 3 28 км ясно +28.6 +14.4 42 +31 +43 жарко 1016.1 1002.2 +18.8
09 19.09 С 2 30 км ясно +28.1 +14.0 42 +30 +33 жарко 1014.8 1007.0
12 19.09 СЗ 3 30 км ясно +24.1 +17.1 65 +28 +28 душно 1015.9 1001.9
15 19.09 С 4 30 км н/о +23.3 +17.3 69 +29 +29 душно 1016.1 1008.2
18 19.09 СЗ 3 17 км н/о +21.8 +18.0 79 +26 +26 душно 1015.2 1001.4 +29.5
21 19.09 С 4 15 км н/о +20.2 +17.6 85 +23 +23 комфорт 1015.0 1007.0

 

Местоположение метеостанции Чанша (Хунань, Китай): широта 28.23 долгота 112.86 высота над уровнем моря 68 м.

В архиве по умолчанию представлена погода в Чанше за последнюю неделю. Архивные данные за месяц целиком и за предыдущие месяцы, начиная с января 2011 года, Вы можете получить, выбрав интересующий диапазон дат из раскрывающегося списка и нажав кнопку "Ввод!".


*Определитесь, кто Вы:
робот инопланетянин человек

Внимание! Время в таблицах - всемирное. Для получения местного времени необходимо прибавить поправку, которая равна 8 ч.

Смотрите также архив погоды в соседних городах и на ближайших метеорологических станциях:

Погода в Намвьете (Хунань, Китай) (105 км)
Погода в Юэяне (Хунань, Китай) (130 км)
Погода в Чандэ (Хунань, Китай) (147 км)
Погода в Ичуне (Хэйлунцзян, Китай) (157 км)
Погода в Шаояне (Хунань, Китай) (177 км)
Погода в Сьюши (Цзяньси, Китай) (190 км)
Погода в Цзиане (Цзяньси, Китай) (241 км)
Погода в Юаньлине (Хунань, Китай) (242 км)
Погода в Янлинге (Шэньси, Китай) (243 км)
Погода в Линлине (Хунань, Китай) (254 км)

Пояснения к столбцам:

Ветер - указаны скорость ветра в м/с - средняя за 10 мин, порывы в срок и между сроками (в фигурных скобках) и направление, откуда дует ветер: С - северный, СВ - северо-восточный, В - восточный, ЮВ - юго-восточный, Ю - южный, ЮЗ - юго-западный, З - западный, СЗ - северо-западный.
Видимость - горизонтальная дальность видимости в метрах или километрах. При видимости от 1 до 10 км при отсутствии осадков обычно наблюдается дымка, при ухудшении видимости до 1 км и менее - туман. В сухую погоду видимость может ухудшаться дымом, пылью или мглою.
Явления - указаны атмосферные явления, наблюдавшиеся в срок или в последний час перед сроком; фигурными скобками обозначены явления, наблюдавшиеся между сроками (за 1-3 часа до срока); квадратными скобками обозначены град или гололедные отложения с указанием их диаметра в мм.
Облачность - указаны через наклонную черту общая и нижняя облачность в баллах и высота нижней границы облаков в метрах; квадратными скобками обозначены формы облаков: Ci - перистые, Cs - перисто-слоистые, Cc - перисто-кучевые, Ac - высококучевые, As - высокослоистые, Sc - слоисто-кучевые, Ns - слоисто-дождевые, Cu - кучевые, Cb - кучево-дождевые. Подробнее классификацию облаков см. в Атласе облаков (PDF).
T - Температура воздуха - температура, измеренная на высоте 2 м над землей.
Td - Температура точки росы - температура, при понижении до которой содержащийся в воздухе водяной пар достигнет насыщения.
f - Относительная влажность воздуха - влажноcть воздуха, измеренная на высоте 2 м над землей.
Te - Эффективная температура - температура, которую ощущает одетый по сезону человек в тени. Характеристика душности погоды. При расчете учитывается влияние влажности воздуха и скорости ветра на теплоощущения человека.
Tes - Эффективная температура на солнце - температура, которую ощущает человек, с поправкой на солнечный нагрев. Характеристика знойности погоды. Зависит от высоты солнца над горизонтом, облачности и скорости ветра. Ночью, в пасмурную погоду, а также при ветре 12 м/с и более поправка равна нулю.
P - Атмосферное давление - приведенное к уровню моря атмосферное давление.
Po - Атмосферное давление - измеренное на уровне метеостанции атмосферное давление.
Tmin - Минимальная температура - минимум температуры воздуха на высоте 2 м над землей.
Tmax - Максимальная температура - максимум температуры воздуха на высоте 2 м над землей.
R - Количество осадков - Количество выпавших осадков за период времени, мм. При наведении курсора мыши на число - период времени, за который выпало указанное количество осадков.
R24 - Количество осадков - Количество выпавших осадков за 24 часа, мм.
S - Снежный покров - Высота снежного покрова, см. При наведении курсора мыши на число - состояние снежного покрова и степень покрытия местности в баллах.